This demonstration page uses our WeatherBlox Daily Observations layout. Learn more.

Left ArrowRight Arrow

Hourly Observations for November 6, 2015

Temp ( °F °C ) Dew Point ( °F °C ) Humidity (%) Winds ( mph kmh ) Pressure ( in mb ) Visibility ( mi km ) Precip ( " mm )
12:53 am 00:53 Mostly Clear 28 -2.2 26 -3.3 92 92 WSW 5 7 30.16 1021 10 16 N/A
1:53 am 01:53 Mostly Clear 26 -3.3 25 -3.9 96 96 SW 7 11 30.17 1022 10 16 N/A
2:53 am 02:53 Cloudy 29 -1.7 26 -3.3 89 89 SW 7 11 30.18 1022 10 16 N/A
3:53 am 03:53 Cloudy 31 -0.6 27 -2.8 85 85 WSW 9 15 30.18 1022 10 16 N/A
4:53 am 04:53 Clear 28 -2.2 26 -3.3 92 92 WSW 10 17 30.20 1023 10 16 N/A
5:53 am 05:53 Partly Cloudy 28 -2.2 25 -3.9 88 88 SW 10 17 30.21 1023 10 16 N/A
6:53 am 06:53 Partly Cloudy 28 -2.2 26 -3.3 92 92 WSW 14 22 30.22 1023 10 16 N/A
7:53 am 07:53 Sunny 28 -2.2 26 -3.3 92 92 SW 15 24 30.23 1024 10 16 N/A
8:53 am 08:53 Sunny 31 -0.6 27 -2.8 85 85 SW 14 22 30.24 1024 10 16 N/A
9:53 am 09:53 Sunny 35 1.7 28 -2.2 76 76 SW 14 22 30.23 1024 10 16 N/A
10:53 am 10:53 Sunny 37 2.8 28 -2.2 70 70 SW 20 31 30.22 1024 10 16 N/A
11:53 am 11:53 Sunny 40 4.4 28 -2.2 63 63 SSW 16 26 30.21 1023 10 16 N/A
12:53 pm 12:53 Sunny 42 5.6 29 -1.7 60 60 WSW 13 20 30.19 1022 10 16 N/A
1:53 pm 13:53 Mostly Sunny 43 6.1 26 -3.3 51 51 WSW 15 24 30.17 1022 10 16 N/A
2:53 pm 14:53 Sunny 45 7.2 23 -5 42 42 W 16 26 30.15 1021 10 16 N/A
3:53 pm 15:53 Sunny 44 6.7 23 -5 43 43 W 13 20 30.14 1021 10 16 N/A
4:53 pm 16:53 Clear 36 2.2 25 -3.9 64 64 WSW 9 15 30.16 1021 10 16 N/A
5:53 pm 17:53 Clear 31 -0.6 24 -4.4 76 76 SW 12 19 30.16 1022 10 16 N/A
6:53 pm 18:53 Clear 31 -0.6 24 -4.4 76 76 SW 15 24 30.16 1021 10 16 N/A
7:53 pm 19:53 Clear 31 -0.6 24 -4.4 76 76 SW 14 22 30.15 1021 10 16 N/A
8:53 pm 20:53 Clear 34 1.1 25 -3.9 70 70 SW 18 30 30.13 1020 10 16 N/A
9:53 pm 21:53 Clear 35 1.7 24 -4.4 64 64 SW 20 31 30.11 1020 10 16 N/A
10:53 pm 22:53 Clear 35 1.7 24 -4.4 64 64 SW 21 33 30.10 1019 10 16 N/A
11:53 pm 23:53 Clear 36 2.2 25 -3.9 64 64 SW 24 39 30.09 1019 10 16 N/A

Powered by AerisWeather